{"data":{"norad_id":68937,"intl_designator":"2026-098U","name":"KUIPER-00432","alt_names":[],"object_type":"PAYLOAD","status":"ACTIVE","operator":null,"country":"US","launch_date":"2026-04-30","launch_site_code":"FRGUI","launch_vehicle":null,"mission":null,"orbit_class":"UNKNOWN","rcs_meters":null,"size_class":null,"mass_kg":null,"dimensions":null,"purposes":[],"wikipedia_slug":null,"has_3d_model":false,"image_url":null,"decayed_at":null,"tle_current":{"epoch":"2026-09-19T06:37:22.144800Z","epoch_age_seconds":125138,"freshness":"FRESH","line1":"1 68937U 26098U   26262.27595075 -.00000069  00000+0  20019-4 0  9997","line2":"2 68937  51.8988 359.4841 0000776 116.4095 243.6947 14.79932394 21452","mean_motion":14.79932394,"eccentricity":7.76e-5,"inclination_deg":51.8988,"raan_deg":359.4841,"arg_perigee_deg":116.4095,"mean_anomaly_deg":243.6947,"bstar":2.0019e-5,"rev_number":2145,"period_min":97.301742014575,"perigee_km":628.99374662301,"apogee_km":630.08133771195,"semimajor_km":7007.6745421675,"source":"CELESTRAK","updated_at":"2026-09-20T09:00:24.581320Z"}}}